Lafayette, IN

4:12 AM EST on February 22, 2018 (GMT -0500)
Purdue Univ

Weather History for KLAF - July, 2014

Change the Weather History Date:

Friday, July 11, 2014

  Actual Average Record
Temperature  
Mean Temperature 68 °F 75 °F  
Max Temperature 82 °F 85 °F 95 °F (1983)
Min Temperature 54 °F 64 °F 51 °F (1996)
Degree Days  
Heating Degree Days 0 0  
Month to date heating degree days 1 0  
Since 1 June heating degree days 7 22  
Since 1 July heating degree days 1 0  
Cooling Degree Days 3 10  
Month to date cooling degree days 53 110  
Year to date cooling degree days 375 404  
Since 1 June cooling degree days 278 327  
Growing Degree Days 18 (Base 50)    
Moisture  
Dew Point 56 °F    
Average Humidity 70    
Maximum Humidity 100    
Minimum Humidity 40    
Precipitation  
Precipitation 0.00 in 0.14 in 1.43 in (2017)
Month to date precipitation 1.31 1.52  
Year to date precipitation 18.61 19.64  
Sea Level Pressure  
Sea Level Pressure 30.17 in    
Wind  
Wind Speed 2 mph (SSW)    
Max Wind Speed 10 mph    
Max Gust Speed 15 mph    
Visibility 9 miles    
Events      
T = Trace of Precipitation, MM = Missing Value Source: NWS Daily Summary

Daily Weather History Graph

Daily Weather History Graph

Search for Another Location

Airport or City:

Trip Planner

Search our weather history database for the weather conditions in past years. The results will help you decide how hot, cold, wet, or windy it might be!

Date:

Astronomy

Jul. 11, 2014 Rise Set
Actual Time 6:27 AM EDT 9:18 PM EDT
Civil Twilight 5:54 AM EDT 9:51 PM EDT
Nautical Twilight 5:14 AM EDT 10:31 PM EDT
Astronomical Twilight 4:26 AM EDT 11:18 PM EDT
Moon 8:28 PM EDT (7/11) 5:39 AM EDT (7/11)
Length of Visible Light 15h 56m
Length of Day
14h 51m
Waxing Gibbous, 99% of the Moon is Illuminated
Jul 11
Waxing Gibbous
Jul 12
Full
Jul 18
Last Quarter
Jul 26
New
Aug 3
First Quarter

Hourly Weather History & Observations

Time (EDT) Temp. Heat Index Dew Point Humidity Pressure Visibility Wind Dir Wind Speed Gust Speed Precip Events Conditions
12:54 AM 57.9 °F - 55.9 °F 93% 30.18 in 10.0 mi Calm Calm - N/A   Clear
1:54 AM 57.0 °F - 55.0 °F 93% 30.18 in 10.0 mi Calm Calm - N/A   Clear
2:54 AM 57.0 °F - 55.0 °F 93% 30.18 in 10.0 mi Calm Calm - N/A   Clear
3:54 AM 55.9 °F - 55.0 °F 97% 30.18 in 9.0 mi Calm Calm - N/A   Clear
4:54 AM 55.0 °F - 55.0 °F 100% 30.18 in 7.0 mi Calm Calm - N/A   Clear
5:54 AM 54.0 °F - 54.0 °F 100% 30.18 in 10.0 mi Calm Calm - N/A   Clear
6:24 AM 55.0 °F - 54.0 °F 96% 30.19 in 2.0 mi Calm Calm - N/A   Clear
6:32 AM 55.0 °F - 54.0 °F 96% 30.19 in 4.0 mi Calm Calm - N/A   Clear
6:54 AM 54.0 °F - 54.0 °F 100% 30.19 in 10.0 mi Calm Calm - N/A   Partly Cloudy
7:54 AM 57.9 °F - 55.9 °F 93% 30.20 in 10.0 mi Calm Calm - N/A   Clear
8:54 AM 64.9 °F - 59.0 °F 81% 30.21 in 10.0 mi Calm Calm - N/A   Clear
9:54 AM 70.0 °F - 57.0 °F 63% 30.22 in 10.0 mi SE 3.5 mph - N/A   Clear
10:54 AM 75.0 °F - 55.0 °F 50% 30.21 in 10.0 mi SE 3.5 mph - N/A   Clear
11:54 AM 77.0 °F - 52.0 °F 42% 30.21 in 10.0 mi Variable 3.5 mph - N/A   Partly Cloudy
12:54 PM 79.0 °F - 54.0 °F 42% 30.21 in 10.0 mi SW 8.1 mph - N/A   Partly Cloudy
1:54 PM 79.0 °F - 53.1 °F 40% 30.19 in 10.0 mi NNW 3.5 mph - N/A   Clear
2:54 PM 79.0 °F - 54.0 °F 42% 30.17 in 10.0 mi Variable 3.5 mph - N/A   Partly Cloudy
3:54 PM 81.0 °F 80.8 °F 55.9 °F 42% 30.17 in 10.0 mi Variable 4.6 mph - N/A   Clear
4:54 PM 80.1 °F 80.2 °F 55.9 °F 43% 30.14 in 10.0 mi South 8.1 mph - N/A   Clear
5:54 PM 80.1 °F 80.6 °F 57.9 °F 47% 30.13 in 10.0 mi SW 5.8 mph - N/A   Clear
6:54 PM 79.0 °F - 59.0 °F 50% 30.12 in 10.0 mi South 4.6 mph - N/A   Partly Cloudy
7:54 PM 78.1 °F - 59.0 °F 52% 30.13 in 10.0 mi Calm Calm - N/A   Clear
8:54 PM 75.0 °F - 61.0 °F 62% 30.13 in 10.0 mi SSW 3.5 mph - N/A   Clear
9:54 PM 70.0 °F - 62.1 °F 76% 30.14 in 10.0 mi Calm Calm - N/A   Clear
10:54 PM 69.1 °F - 61.0 °F 75% 30.14 in 10.0 mi Calm Calm - N/A   Clear
11:54 PM 69.1 °F - 61.0 °F 75% 30.14 in 10.0 mi Calm Calm - N/A   Clear